[[{"header":{"parameterUnit":"m.s-1","parameterCategory":1,"la1":30.2991,"la2":30.254,"lo1":-89.0895,"lo2":-89.0444,"dy":0.0017,"dx":0.0017,"nx":28,"ny":28,"refTime":"2024-02-03T03:00:00:Z","depth":0,"parameterNumber":2,"parameterNumberName":"U-component_of_WINDS"},"data":[0,0,0,0,0,0,0,0,0,0,0,0,0,0,0,0,0,0,0,0,0,0,0,0,0,0,0,0,0,0,0,0,0,0,0,0,0,0,0,0,0,0,0,0,0,0,0,0,0,0,0,0,0,0,0,0,0,0,-1.9847,-1.9849,0,-1.9978,-1.998,-1.9981,-1.9979,-1.9977,-1.9976,-1.9974,-2.0114,-2.0119,-2.0124,0,0,0,0,0,0,0,0,0,0,0,0,0,-1.9599,-1.9604,-1.9847,-1.9849,-1.985,-1.9978,-1.998,-1.9982,-1.9979,-1.9977,-1.9975,-1.9973,-2.0112,-2.0118,-2.0125,0,0,0,0,0,0,0,0,0,0,0,0,0,-1.9716,-1.9605,-1.9847,-1.9865,-1.9867,-1.9978,-1.998,-1.9982,-1.998,-1.9977,-1.9975,-1.9972,-2.011,-2.0118,-2.0126,-2.0229,0,0,-2.015,-2.0154,0,0,0,0,0,0,0,0,-1.971,-1.9726,-1.986,-1.9864,-1.9867,-1.996,-1.9944,-2.0065,-1.9981,-1.9937,-1.9974,-1.9971,-2.0065,-2.0077,-2.0107,-2.0236,-2.0242,-2.0151,-2.0156,-2.016,-2.0162,0,0,0,0,0,0,0,-1.9702,-1.972,-1.9899,-1.9862,-1.9866,-1.9867,-1.9881,-1.9967,-2.0015,-1.9941,-1.9941,-1.9956,-2.0066,-2.0099,-2.0111,-2.0244,-2.0151,-2.0158,-2.0163,-2.0166,-2.0463,-2.0466,0,0,0,0,0,0,-1.9689,-1.9713,-1.9895,-1.9903,-1.978,-1.9874,-1.9889,-1.9933,-2.0014,-2.0023,-1.9958,-1.9956,-2.0087,-2.0101,-2.0115,-2.0241,-2.0159,-2.0167,-2.0172,-2.046,-2.0464,-2.0467,0,0,0,0,0,0,-1.9684,-1.9705,-1.989,-1.9808,-1.9832,-1.9881,-1.993,-1.9937,-1.997,-2.0027,-2.0036,-1.9983,-2.0085,-2.0104,-2.02,-2.0246,-2.0171,-2.0178,-2.0456,-2.0461,-2.0465,-2.0493,0,0,0,0,0,0,-1.9677,-1.9703,-1.9742,-1.9809,-1.9836,-1.9971,-1.9933,-1.9941,-1.9983,-1.9981,-2.0053,-2.0062,-2.0085,-2.0188,-2.0208,-2.0256,-2.0184,-2.0452,-2.0458,-2.0464,-2.0489,-2.0498,-2.0507,0,0,0,0,0,-1.9668,-1.9746,-1.9744,-1.9766,-1.9885,-1.9974,-1.9989,-2.0012,-1.9987,-2.0026,-2.0063,-2.006,-2.0238,-2.0198,-2.0221,-2.0271,-2.045,-2.0457,-2.0463,-2.0484,-2.0496,-2.0506,0,0,0,0,0,0,-1.9686,-1.9755,-1.9754,-1.9856,-1.9908,-1.9973,-2.0024,-2.0024,-2.0087,-2.0082,-2.011,-2.0127,-2.0222,-2.0257,-2.0211,-2.0375,-2.0341,-2.0352,-2.0349,-2.0361,-2.037,-2.0359,-2.0191,0,0,0,0,0,-1.9701,-1.9765,-1.9824,-1.9908,-1.9934,-1.9975,-2.0014,-2.0027,-2.0084,-2.0106,-2.015,-2.0207,-2.0275,-2.032,-2.0387,-2.0494,-2.0509,-2.054,-2.0548,-2.0556,-2.0565,-2.0624,-2.0638,-2.0489,-2.0489,-2.0489,0,0,-1.9734,-1.978,-1.982,-1.9913,-1.9955,-2.0022,-1.9994,-2.0066,-2.0117,-2.0118,-2.0211,-2.0245,-2.031,-2.0412,-2.0459,-2.0443,-2.061,-2.0564,-2.057,-2.0576,-2.0633,-2.0647,-2.0659,-2.0494,-2.0493,-2.0492,0,0,-1.9829,-1.987,-1.9944,-1.9987,-2.005,-2.0077,-2.0094,-2.0159,-2.0181,-2.0274,-2.0276,-2.0338,-2.0456,-2.0501,-2.054,-2.0651,-2.065,-2.0672,-2.0719,-2.0776,-2.0788,-2.0799,-2.0838,-2.0852,-2.0682,-2.0682,-2.0682,0,-1.9862,-1.9962,-1.9983,-2.0055,-2.0096,-2.0099,-2.0175,-2.0216,-2.0299,-2.0328,-2.0309,-2.0456,-2.05,-2.0612,-2.0639,-2.067,-2.0692,-2.0664,-2.0784,-2.0795,-2.0805,-2.0843,-2.0858,-2.0684,-2.0684,-2.0684,-2.0683,0,-2.0,-2.0069,-2.0122,-2.0199,-2.0246,-2.032,-2.0354,-2.0399,-2.0408,-2.0437,-2.0532,-2.0585,-2.0661,-2.0689,-2.07,-2.0803,-2.0791,-2.0778,-2.0744,-2.0821,-2.0857,-2.0872,-2.0687,-2.0687,-2.0686,-2.0685,0,0,-2.0109,-2.0196,-2.0215,-2.025,-2.032,-2.0375,-2.045,-2.0523,-2.0561,-2.0618,-2.0682,-2.0781,-2.0769,-2.0813,-2.0829,-2.0879,-2.0963,-2.086,-2.0862,-2.0876,-2.108,-2.1089,-2.1105,-2.0963,-2.0965,-2.0968,-2.1074,0,-2.021,-2.034,-2.0361,-2.0476,-2.054,-2.0543,-2.0608,-2.0659,-2.0688,-2.0748,-2.078,-2.085,-2.0829,-2.0855,-2.0905,-2.0942,-2.1004,-2.0935,-2.1023,-2.1026,-2.1006,-2.1124,-2.1134,-2.1232,-2.1088,-2.1091,-2.1093,0,-2.0346,-2.0404,-2.0524,-2.0585,-2.0613,-2.067,-2.0738,-2.0796,-2.0854,-2.0871,-2.092,-2.0929,-2.1008,-2.097,-2.108,-2.1032,-2.107,-2.1093,-2.1098,-2.1107,-2.1063,-2.1136,-2.1264,-2.1278,-2.1115,-2.1113,-2.1112,0,-2.0412,-2.0521,-2.0607,-2.0637,-2.071,-2.075,-2.0783,-2.0839,-2.0881,-2.0941,-2.0969,-2.1039,-2.1077,-2.1132,-2.116,-2.113,-2.1268,-2.1233,-2.1285,-2.1285,-2.1314,-2.1311,-2.1449,-2.1339,-2.1339,-2.1338,-2.1338,0,-2.0523,-2.0596,-2.0637,-2.069,-2.0773,-2.0797,-2.0879,-2.0911,-2.096,-2.102,-2.1028,-2.1085,-2.1119,-2.1182,-2.1205,-2.1292,-2.1309,-2.1326,-2.1332,-2.1325,-2.1323,-2.135,-2.1344,-2.1342,-2.1341,-2.1341,-2.134,0,-2.0611,-2.0641,-2.0735,-2.0796,-2.0813,-2.0871,-2.0924,-2.0976,-2.1005,-2.1081,-2.11,-2.1145,-2.1219,-2.1252,-2.1344,-2.136,-2.1459,-2.146,-2.1438,-2.144,-2.149,-2.1485,-2.165,-2.1673,-2.1548,-2.1549,-2.155,0,-2.0679,-2.0735,-2.0801,-2.0841,-2.0874,-2.0938,-2.0981,-2.1007,-2.1052,-2.1122,-2.1166,-2.1239,-2.1299,-2.1416,-2.1459,-2.1529,-2.1531,-2.1584,-2.1542,-2.1534,-2.1532,-2.1528,-2.1533,-2.1592,-2.1593,-2.1594,-2.1595,0,-2.0796,-2.0808,-2.0868,-2.0933,-2.0983,-2.1037,-2.1089,-2.1122,-2.1157,-2.1207,-2.1281,-2.1327,-2.1419,-2.1492,-2.1565,-2.1601,-2.1604,-2.1608,-2.1623,-2.1617,-2.1602,-2.1611,-2.1458,-2.1604,-2.1603,-2.1602,-2.1602,-2.1601,-2.0876,-2.0925,-2.0979,-2.1046,-2.1088,-2.1136,-2.1188,-2.1222,-2.1283,-2.1359,-2.1372,-2.145,-2.1508,-2.1605,-2.1644,-2.1707,-2.1695,-2.1718,-2.1724,-2.1729,-2.1731,-2.1592,-2.1721,-2.172,-2.172,-2.172,-2.172,0,-2.0992,-2.1027,-2.1088,-2.116,-2.1213,-2.1209,-2.1267,-2.1312,-2.138,-2.1432,-2.1491,-2.1576,-2.1647,-2.1694,-2.1766,-2.1807,-2.1811,-2.1825,-2.1823,-2.1831,-2.1738,-2.1717,-2.1821,-2.1821,-2.1821,-2.1821,-2.1821,-2.1821,-2.1059,-2.1143,-2.1161,-2.1266,-2.1301,-2.1376,-2.141,-2.1455,-2.1497,-2.1591,-2.1648,-2.1678,-2.1729,-2.1805,-2.187,-2.1882,-2.1908,-2.1923,-2.1935,-2.1848,-2.1837,-2.1827,-2.1807,-2.1929,-2.1929,-2.2022,-2.2023,-2.2024]},{"header":{"parameterUnit":"m.s-1","parameterCategory":1,"la1":30.2991,"la2":30.254,"lo1":-89.0895,"lo2":-89.0444,"dy":0.0017,"dx":0.0017,"nx":28,"ny":28,"refTime":"2024-02-03T03:00:00:Z","depth":0,"parameterNumber":3,"parameterNumberName":"V-component_of_WINDS"},"data":[0,0,0,0,0,0,0,0,0,0,0,0,0,0,0,0,0,0,0,0,0,0,0,0,0,0,0,0,0,0,0,0,0,0,0,0,0,0,0,0,0,0,0,0,0,0,0,0,0,0,0,0,0,0,0,0,0,0,-0.3071,-0.3071,0,-0.3129,-0.313,-0.3131,-0.3142,-0.3142,-0.3141,-0.3141,-0.3201,-0.3203,-0.3205,0,0,0,0,0,0,0,0,0,0,0,0,0,-0.2969,-0.297,-0.3071,-0.3072,-0.3072,-0.3129,-0.313,-0.3131,-0.3142,-0.3142,-0.3141,-0.3141,-0.3201,-0.3203,-0.3206,0,0,0,0,0,0,0,0,0,0,0,0,0,-0.3019,-0.2971,-0.3071,-0.3085,-0.3087,-0.3129,-0.313,-0.3131,-0.3142,-0.3142,-0.3141,-0.314,-0.32,-0.3203,-0.3206,-0.3239,0,0,-0.3215,-0.3217,0,0,0,0,0,0,0,0,-0.3016,-0.3022,-0.3082,-0.3084,-0.3086,-0.3128,-0.3116,-0.3167,-0.3143,-0.3121,-0.3141,-0.314,-0.3177,-0.3182,-0.3195,-0.3242,-0.3244,-0.3216,-0.3217,-0.3219,-0.322,0,0,0,0,0,0,0,-0.3012,-0.302,-0.3094,-0.3083,-0.3085,-0.3088,-0.3094,-0.3126,-0.3153,-0.3123,-0.3124,-0.3131,-0.3178,-0.3192,-0.3196,-0.3245,-0.3215,-0.3218,-0.322,-0.3221,-0.3321,-0.3322,0,0,0,0,0,0,-0.3006,-0.3017,-0.3092,-0.3096,-0.3048,-0.3091,-0.3098,-0.3115,-0.3152,-0.3157,-0.3131,-0.3131,-0.3187,-0.3193,-0.3199,-0.3239,-0.3219,-0.3222,-0.3223,-0.332,-0.3321,-0.3322,0,0,0,0,0,0,-0.3004,-0.3013,-0.309,-0.3057,-0.3067,-0.3093,-0.3112,-0.3117,-0.313,-0.3158,-0.3163,-0.314,-0.3187,-0.3194,-0.3229,-0.3241,-0.3223,-0.3226,-0.3319,-0.3321,-0.3322,-0.3321,0,0,0,0,0,0,-0.3001,-0.3012,-0.3025,-0.3057,-0.3068,-0.3119,-0.3113,-0.3118,-0.3135,-0.3135,-0.3168,-0.3173,-0.3187,-0.3224,-0.3232,-0.3245,-0.3228,-0.3318,-0.332,-0.3321,-0.332,-0.3322,-0.3323,0,0,0,0,0,-0.2997,-0.3022,-0.3025,-0.3034,-0.3085,-0.3119,-0.3126,-0.3141,-0.3136,-0.3149,-0.3167,-0.3172,-0.3239,-0.3227,-0.3236,-0.3251,-0.3318,-0.332,-0.3321,-0.3319,-0.3321,-0.3323,0,0,0,0,0,0,-0.2992,-0.3027,-0.3031,-0.3067,-0.309,-0.3121,-0.3138,-0.3144,-0.3169,-0.3168,-0.3186,-0.3194,-0.3227,-0.3242,-0.3229,-0.3284,-0.3278,-0.3282,-0.3273,-0.3276,-0.3277,-0.3273,-0.3231,0,0,0,0,0,-0.2995,-0.302,-0.3049,-0.3078,-0.309,-0.3112,-0.3127,-0.3137,-0.3162,-0.3172,-0.3193,-0.3217,-0.3243,-0.326,-0.3286,-0.3322,-0.3329,-0.3336,-0.3338,-0.334,-0.3343,-0.3362,-0.3366,-0.3328,-0.3328,-0.3328,0,0,-0.3001,-0.3023,-0.3038,-0.3078,-0.3097,-0.3122,-0.312,-0.3147,-0.3166,-0.3176,-0.321,-0.3226,-0.3254,-0.3289,-0.3305,-0.3303,-0.3355,-0.3342,-0.3343,-0.3345,-0.3365,-0.3368,-0.3371,-0.3329,-0.3329,-0.3329,0,0,-0.3025,-0.3045,-0.3071,-0.309,-0.3119,-0.3133,-0.314,-0.317,-0.3181,-0.3215,-0.3223,-0.3245,-0.3291,-0.331,-0.3326,-0.3357,-0.3362,-0.3365,-0.3375,-0.3394,-0.3397,-0.34,-0.341,-0.3414,-0.3368,-0.3368,-0.3368,0,-0.303,-0.3068,-0.3084,-0.311,-0.3127,-0.3137,-0.3164,-0.3181,-0.3217,-0.3229,-0.3225,-0.3282,-0.3302,-0.3341,-0.3348,-0.3361,-0.3369,-0.3362,-0.3395,-0.3398,-0.3401,-0.3411,-0.3415,-0.3368,-0.3368,-0.3368,-0.3368,0,-0.3072,-0.3099,-0.3116,-0.315,-0.3169,-0.3196,-0.3215,-0.3232,-0.324,-0.3255,-0.3289,-0.3313,-0.3343,-0.3353,-0.3362,-0.3394,-0.3392,-0.3391,-0.3385,-0.3404,-0.3414,-0.3419,-0.3368,-0.3368,-0.3368,-0.3368,0,0,-0.3095,-0.3137,-0.3143,-0.3158,-0.319,-0.3211,-0.3238,-0.3267,-0.3282,-0.3306,-0.3329,-0.3367,-0.3366,-0.3384,-0.3395,-0.3411,-0.3434,-0.3409,-0.341,-0.3413,-0.3471,-0.3471,-0.3475,-0.3437,-0.3438,-0.3439,-0.3468,0,-0.3123,-0.3171,-0.3185,-0.3225,-0.325,-0.3259,-0.3282,-0.3305,-0.3319,-0.3342,-0.3358,-0.3384,-0.3382,-0.3393,-0.341,-0.3428,-0.3446,-0.3426,-0.3459,-0.346,-0.3451,-0.348,-0.3481,-0.3507,-0.3472,-0.3473,-0.3474,0,-0.3163,-0.3187,-0.3229,-0.3258,-0.3269,-0.3289,-0.3317,-0.3339,-0.3364,-0.3374,-0.3393,-0.3402,-0.343,-0.3422,-0.3461,-0.3447,-0.3461,-0.3472,-0.3473,-0.3477,-0.3468,-0.3485,-0.3516,-0.352,-0.348,-0.348,-0.3479,0,-0.3175,-0.3218,-0.3249,-0.3262,-0.3296,-0.331,-0.3325,-0.335,-0.3366,-0.3391,-0.3402,-0.3429,-0.3445,-0.3466,-0.3482,-0.3474,-0.3519,-0.3513,-0.3528,-0.3527,-0.3537,-0.3536,-0.3571,-0.3546,-0.3546,-0.3546,-0.3546,0,-0.3205,-0.323,-0.3255,-0.3274,-0.3303,-0.3319,-0.3347,-0.3362,-0.3384,-0.3406,-0.3416,-0.3436,-0.3456,-0.3479,-0.3492,-0.3522,-0.3529,-0.3537,-0.354,-0.3536,-0.3535,-0.3546,-0.3545,-0.3547,-0.3547,-0.3546,-0.3546,0,-0.3224,-0.3241,-0.3275,-0.3304,-0.3312,-0.3332,-0.3357,-0.3376,-0.339,-0.3418,-0.3426,-0.3449,-0.3476,-0.3494,-0.353,-0.3538,-0.3571,-0.3574,-0.3562,-0.3564,-0.3578,-0.3576,-0.3621,-0.3627,-0.3598,-0.3598,-0.3599,0,-0.3241,-0.3261,-0.3292,-0.3308,-0.3322,-0.3347,-0.3364,-0.338,-0.3398,-0.3427,-0.3443,-0.3471,-0.3494,-0.3538,-0.3558,-0.3585,-0.3588,-0.3602,-0.3593,-0.3588,-0.3588,-0.3587,-0.3589,-0.3604,-0.3604,-0.3604,-0.3604,0,-0.3271,-0.3279,-0.3303,-0.333,-0.3349,-0.3371,-0.3394,-0.3405,-0.3426,-0.3445,-0.3473,-0.3491,-0.3527,-0.3555,-0.3583,-0.3599,-0.3605,-0.3607,-0.3612,-0.3608,-0.3601,-0.3605,-0.3566,-0.3606,-0.3606,-0.3606,-0.3606,-0.3606,-0.329,-0.3308,-0.3332,-0.3359,-0.3377,-0.3397,-0.3416,-0.3432,-0.3456,-0.3486,-0.3495,-0.3524,-0.3548,-0.3587,-0.3603,-0.3627,-0.3625,-0.3632,-0.3634,-0.3635,-0.3635,-0.3597,-0.3632,-0.3632,-0.3632,-0.3632,-0.3632,0,-0.332,-0.3336,-0.336,-0.339,-0.3411,-0.3414,-0.3439,-0.3456,-0.3481,-0.3503,-0.3526,-0.3558,-0.3585,-0.3607,-0.3635,-0.3649,-0.3653,-0.3656,-0.3655,-0.3658,-0.3635,-0.3628,-0.3652,-0.3652,-0.3652,-0.3652,-0.3652,-0.3652,-0.3339,-0.3369,-0.3379,-0.3418,-0.3434,-0.3462,-0.3476,-0.3495,-0.3512,-0.3548,-0.357,-0.3584,-0.3606,-0.3635,-0.366,-0.3665,-0.3675,-0.3678,-0.3684,-0.3662,-0.366,-0.3658,-0.3651,-0.368,-0.368,-0.3705,-0.3705,-0.3706]}]]